Nassau, Bahamas

10:25 AM EDT on April 30, 2017 (GMT -0400)
Nassau International

Weather History for MYNN - February, 2013

Change the Weather History Date:

Friday, February 22, 2013

  Actual Average Record
Temperature  
Mean Temperature 77 °F -  
Max Temperature 83 °F 79 °F 85 °F (2014)
Min Temperature 71 °F 63 °F 59 °F (2004)
Cooling Degree Days 12    
Growing Degree Days 27 (Base 50)    
Moisture  
Dew Point 70 °F    
Average Humidity 82    
Maximum Humidity 94    
Minimum Humidity 63    
Precipitation  
Precipitation 0.00 in 0.05 in - ()
Sea Level Pressure  
Sea Level Pressure 30.09 in    
Wind  
Wind Speed 7 mph ()    
Max Wind Speed 84 mph    
Max Gust Speed -    
Visibility 7.0 miles    
Events      
Averages and records for this station are not official NWS values.
T = Trace of Precipitation, MM = Missing Value Source: Averaged Metar Reports

Daily Weather History Graph

Daily Weather History Graph

Search for Another Location

Airport or City:

Trip Planner

Search our weather history database for the weather conditions in past years. The results will help you decide how hot, cold, wet, or windy it might be!

Date:

Astronomy

Feb. 22, 2013 Rise Set
Actual Time 6:38 AM EST 6:08 PM EST
Civil Twilight 6:15 AM EST 6:31 PM EST
Nautical Twilight 5:48 AM EST 6:58 PM EST
Astronomical Twilight 5:22 AM EST 7:24 PM EST
Moon 3:29 PM EST (2/22) 4:09 AM EST (2/22)
Length of Visible Light 12h 16m
Length of Day
11h 29m
Waxing Gibbous, 90% of the Moon is Illuminated
Feb 22
Waxing Gibbous
Feb 25
Full
Mar 4
Last Quarter
Mar 11
New
Mar 19
First Quarter

Hourly Weather History & Observations

Time (EST) Temp. Heat Index Dew Point Humidity Pressure Visibility Wind Dir Wind Speed Gust Speed Precip Events Conditions
12:00 AM 73.4 °F - 68.0 °F 83% 30.07 in 6.2 mi ENE 4.6 mph - N/A   Partly Cloudy
1:00 AM 73 °F - 70 °F 86% 30.07 in 9 mi East 3.5 mph - -   Scattered Clouds
1:00 AM 73.4 °F - 69.8 °F 88% 30.06 in 6.2 mi East 3.5 mph - N/A   Partly Cloudy
2:00 AM 71.6 °F - 68.0 °F 88% 30.06 in 6.2 mi ENE 3.5 mph - N/A   Partly Cloudy
3:00 AM 71.6 °F - 68.0 °F 88% 30.05 in 6.2 mi ENE 3.5 mph - N/A   Partly Cloudy
4:00 AM 71.6 °F - 69.8 °F 94% 30.05 in 6.2 mi East 3.5 mph - N/A   Partly Cloudy
5:00 AM 71.6 °F - 68.0 °F 88% 30.06 in 6.2 mi East 3.5 mph - N/A   Partly Cloudy
6:00 AM 71.6 °F - 68.0 °F 88% 30.07 in 6.2 mi ENE 3.5 mph - N/A   Partly Cloudy
7:00 AM 72 °F - 70 °F 91% 30.11 in 9 mi East 4.6 mph - -   Scattered Clouds
7:00 AM 71.6 °F - 69.8 °F 94% 30.10 in 6.2 mi East 4.6 mph - N/A   Partly Cloudy
8:00 AM 73.4 °F - 69.8 °F 88% 30.13 in 6.2 mi ENE 5.8 mph - N/A   Scattered Clouds
9:00 AM 75.2 °F - 69.8 °F 83% 30.14 in 6.2 mi ENE 6.9 mph - N/A   Scattered Clouds
10:00 AM - - - %  in 9 mi 84.0 mph - -  
10:00 AM 75.2 °F - 69.8 °F 83% 3.01 in - East 5.8 mph - N/A   Scattered Clouds
11:00 AM 77.0 °F - 69.8 °F 78% 30.13 in - East 8.1 mph - N/A   Scattered Clouds
1:00 PM 82 °F - 72 °F 65% 30.11 in 9 mi ESE 15.0 mph - -   Partly Cloudy
1:00 PM 82.4 °F 87.2 °F 71.6 °F 70% 30.11 in 6.2 mi ESE 15.0 mph - N/A   Scattered Clouds
4:00 PM 80 °F - 69 °F 63% 30.06 in 9 mi East 10.4 mph - -   Partly Cloudy
4:00 PM 80.6 °F 83.9 °F 69.8 °F 70% 30.06 in 6.2 mi East 10.4 mph - N/A   Scattered Clouds
5:00 PM 77.0 °F - 69.8 °F 78% 30.08 in 6.2 mi ESE 8.1 mph - N/A   Scattered Clouds
6:00 PM 77.0 °F - 68.0 °F 74% 30.08 in 6.2 mi East 8.1 mph - N/A   Scattered Clouds
7:00 PM 76 °F - 69 °F 75% 30.09 in 9 mi East 3.5 mph - -   Partly Cloudy
7:00 PM 75.2 °F - 69.8 °F 83% 30.09 in 6.2 mi East 3.5 mph - N/A   Scattered Clouds
8:00 PM 75.2 °F - 69.8 °F 83% 30.10 in 6.2 mi ESE 4.6 mph - N/A   Partly Cloudy
9:00 PM 75.2 °F - 69.8 °F 83% 30.11 in 6.2 mi ESE 4.6 mph - N/A   Partly Cloudy
10:00 PM 74 °F - 71 °F 86% 30.13 in 9 mi NE 3.5 mph - -   Partly Cloudy
10:00 PM 75.2 °F - 71.6 °F 89% 30.13 in 6.2 mi NE 3.5 mph - N/A   Scattered Clouds
11:00 PM 73.4 °F - 69.8 °F 88% 30.11 in 6.2 mi East 8.1 mph - N/A   Scattered Clouds